Wittering, United Kingdom

4:40 AM BST on June 28, 2017 (GMT +0100)
Wittering Air Base

Weather History for EGXT - October, 2012

Change the Weather History Date:

Friday, October 5, 2012

  Actual Average Record
Temperature  
Mean Temperature 51 °F -  
Max Temperature 54 °F 54 °F 68 °F (2011)
Min Temperature 46 °F 42 °F 37 °F (2014)
Degree Days  
Heating Degree Days 14    
Growing Degree Days 1 (Base 50)    
Moisture  
Dew Point 47 °F    
Average Humidity 86    
Maximum Humidity 100    
Minimum Humidity 62    
Precipitation  
Precipitation 0.12 in - - ()
Sea Level Pressure  
Sea Level Pressure 29.69 in    
Wind  
Wind Speed 9 mph ()    
Max Wind Speed 18 mph    
Max Gust Speed -    
Visibility 5.9 miles    
Events Rain    
Averages and records for this station are not official NWS values.
T = Trace of Precipitation, MM = Missing Value Source: Averaged Metar Reports

Daily Weather History Graph

Daily Weather History Graph

Search for Another Location

Airport or City:

Trip Planner

Search our weather history database for the weather conditions in past years. The results will help you decide how hot, cold, wet, or windy it might be!

Date:

Astronomy

Oct. 05, 2012 Rise Set
Actual Time 7:10 AM BST 6:28 PM BST
Civil Twilight 6:36 AM BST 7:02 PM BST
Nautical Twilight 5:56 AM BST 7:42 PM BST
Astronomical Twilight 5:16 AM BST 8:22 PM BST
Moon 9:02 PM BST (10/5) 12:44 PM BST (10/5)
Length of Visible Light 12h 26m
Length of Day
11h 18m
Waning Gibbous, 76% of the Moon is Illuminated
Oct 5
Waning Gibbous
Oct 8
Last Quarter
Oct 15
New
Oct 22
First Quarter
Oct 29
Full

Hourly Weather History & Observations

Time (BST) Temp. Windchill Dew Point Humidity Pressure Visibility Wind Dir Wind Speed Gust Speed Precip Events Conditions
12:50 AM 49 °F - 47 °F 92% 29.71 in 11 mi South 9.2 mph - - Rain Rain
12:50 AM 50.0 °F - 48.2 °F 94% 29.68 in 6.2 mi South 9.2 mph - N/A Rain Rain
1:50 AM 50.0 °F - 48.2 °F 94% 29.65 in 6.2 mi South 10.4 mph - N/A Rain Rain
2:50 AM 48.2 °F - 46.4 °F 93% 29.59 in 6.2 mi SSE 8.1 mph - N/A Rain Rain
3:50 AM 48 °F - 47 °F 97% 29.57 in 4 mi East 5.8 mph - - Rain Rain
3:50 AM 48.2 °F - 48.2 °F 100% 29.56 in 3.7 mi East 5.8 mph - N/A Rain Rain
4:50 AM 48.2 °F - 48.2 °F 100% 29.53 in 1.9 mi North 4.6 mph - N/A Rain Rain
5:50 AM 48.2 °F - 48.2 °F 100% 29.53 in - NE 2.3 mph - N/A Rain Light Rain Showers
6:50 AM 48 °F - 47 °F 97% 29.56 in 2 mi SSW 1.2 mph - - Rain Rain
6:50 AM 48.2 °F - 48.2 °F 100% 29.53 in - SSW 1.2 mph - N/A   Scattered Clouds
7:50 AM 48.2 °F - 48.2 °F 100% 29.56 in 6.2 mi WSW 11.5 mph - N/A   Mostly Cloudy
8:50 AM 50.0 °F - 48.2 °F 94% 29.62 in 6.2 mi WSW 15.0 mph - N/A   Scattered Clouds
9:50 AM 51 °F - 49 °F 88% 29.65 in 28 mi WSW 15.0 mph - -   Mostly Cloudy
9:50 AM 51.8 °F - 48.2 °F 88% 29.65 in 6.2 mi WSW 15.0 mph - N/A   Scattered Clouds
10:50 AM 51.8 °F - 48.2 °F 88% 29.65 in 6.2 mi WSW 15.0 mph - N/A   Mostly Cloudy
11:50 AM 53.6 °F - 48.2 °F 82% 29.68 in 6.2 mi WSW 17.3 mph - N/A   Mostly Cloudy
12:50 PM 54 °F - 45 °F 62% 29.73 in 22 mi WSW 18.4 mph - -   Scattered Clouds
12:50 PM 53.6 °F - 44.6 °F 72% 29.71 in 6.2 mi WSW 18.4 mph - N/A   Mostly Cloudy
1:50 PM 53.6 °F - 44.6 °F 72% 29.74 in 6.2 mi WSW 18.4 mph - N/A   Mostly Cloudy
2:50 PM 53.6 °F - 46.4 °F 77% 29.74 in 6.2 mi WSW 16.1 mph - N/A   Mostly Cloudy
3:50 PM 53 °F - 46 °F 68% 29.77 in 25 mi WSW 16.1 mph - -   Mostly Cloudy
3:50 PM 53.6 °F - 46.4 °F 77% 29.77 in 6.2 mi WSW 16.1 mph - N/A   Mostly Cloudy
4:50 PM 53.6 °F - 44.6 °F 72% 29.77 in 6.2 mi WSW 15.0 mph - N/A   Overcast
5:50 PM 53.6 °F - 44.6 °F 72% 29.77 in 6.2 mi WSW 8.1 mph - N/A   Overcast
6:50 PM 52 °F - 46 °F 74% 29.79 in 22 mi SW 6.9 mph - -   Overcast
6:50 PM 51.8 °F - 46.4 °F 82% 29.77 in 6.2 mi SW 6.9 mph - N/A   Overcast
7:50 PM 51.8 °F - 46.4 °F 82% 29.77 in 6.2 mi SW 6.9 mph - N/A   Overcast
8:50 PM 50.0 °F - 46.4 °F 87% 29.77 in 6.2 mi South 4.6 mph - N/A Rain Light Rain Showers
9:50 PM 49 °F - 47 °F 89% 29.82 in 6 mi SSW 10.4 mph - - Rain Rain Showers
9:50 PM 50.0 °F - 46.4 °F 87% 29.80 in 6.2 mi SSW 10.4 mph - N/A Rain Rain Showers
10:50 PM 48.2 °F - 46.4 °F 93% 29.80 in 6.2 mi SSW 9.2 mph - N/A Rain Light Rain
11:50 PM 46.4 °F 41.5 °F 44.6 °F 93% 29.80 in 6.2 mi SW 10.4 mph - N/A Rain Rain